Time_in_sec,Latitude,Longitude,Altitude,Nbsat_max_qualitysignal,Nbsat_locked,valid_data
1314270419.90057230,-0.00008649,0.00009032,847.85754395,0,0,0
1314270419.95417833,-0.00008657,0.00009032,847.75866699,0,0,0
1314270420.00046206,-0.00008648,0.00009031,847.65917969,0,0,0
1314270420.05365610,-0.00008656,0.00009031,847.56024170,0,0,0
1314270420.10342741,-0.00008648,0.00009031,847.46063232,0,0,0
1314270420.15261817,-0.00008655,0.00009031,847.36163330,0,0,0
1314270420.20209503,-0.00008647,0.00009030,847.26202393,0,0,0
1314270420.25257230,-0.00008654,0.00009030,847.16290283,0,0,0
1314270420.30163598,-0.00008646,0.00009030,847.06323242,0,0,0
1314270420.35004520,-0.00008653,0.00009029,846.96405029,0,0,0
1314270420.40162563,-0.00008645,0.00009029,846.86431885,0,0,0
1314270420.45258021,-0.00008653,0.00009029,846.76507568,0,0,0
1314270420.50045776,-0.00008644,0.00009028,846.66528320,0,0,0
1314270420.55361652,-0.00008652,0.00009028,846.56604004,0,0,0
1314270420.60148311,-0.00008644,0.00009028,846.46618652,0,0,0
1314270420.65348577,-0.00008651,0.00009027,846.36688232,0,0,0
1314270420.70160580,-0.00008643,0.00009027,846.26696777,0,0,0
1314270420.74993014,-0.00008650,0.00009027,846.16760254,0,0,0
1314270420.80049205,-0.00008642,0.00009026,846.06756592,0,0,0
1314270420.85259175,-0.00008649,0.00009026,845.96813965,0,0,0
1314270420.90172863,-0.00008641,0.00009026,845.86816406,0,0,0
1314270420.95249844,-0.00008649,0.00009026,845.76867676,0,0,0
1314270421.00147438,-0.00008640,0.00009025,845.66864014,0,0,0
1314270421.05345917,-0.00008648,0.00009025,845.56909180,0,0,0
1314270421.10046101,-0.00008639,0.00009025,845.46899414,0,0,0
1314270421.14978933,-0.00008647,0.00009024,845.36938477,0,0,0
1314270421.20048857,-0.00008639,0.00009024,845.26916504,0,0,0
1314270421.25258112,-0.00008646,0.00009024,845.16949463,0,0,0
1314270421.30449581,-0.00008638,0.00009023,845.06921387,0,0,0
1314270421.35250020,-0.00008645,0.00009023,844.96942139,0,0,0
1314270421.40095663,-0.00008637,0.00009023,844.86907959,0,0,0
1314270421.45351839,-0.00008644,0.00009023,844.76922607,0,0,0
1314270421.50084782,-0.00008636,0.00009022,844.66876221,0,0,0
1314270421.54962802,-0.00008644,0.00009022,844.56890869,0,0,0
1314270421.60096955,-0.00008635,0.00009022,844.46838379,0,0,0
1314270421.64963222,-0.00008643,0.00009021,844.36840820,0,0,0
1314270421.70310116,-0.00008634,0.00009021,844.26776123,0,0,0
1314270421.75261354,-0.00008642,0.00009021,844.16772461,0,0,0
1314270421.80153179,-0.00008633,0.00009020,844.06707764,0,0,0
1314270421.84949946,-0.00008641,0.00009020,843.96697998,0,0,0
1314270421.90059543,-0.00008633,0.00009020,843.86627197,0,0,0
1314270421.94948077,-0.00008640,0.00009019,843.76611328,0,0,0
1314270422.00045085,-0.00008632,0.00009019,843.66534424,0,0,0
1314270422.04958057,-0.00008639,0.00009019,843.56512451,0,0,0
1314270422.10049272,-0.00008631,0.00009019,843.46423340,0,0,0
1314270422.15245247,-0.00008639,0.00009018,843.36395264,0,0,0
1314270422.20050263,-0.00008630,0.00009018,843.26306152,0,0,0
1314270422.25245142,-0.00008638,0.00009018,843.16271973,0,0,0
1314270422.30077839,-0.00008629,0.00009017,843.06170654,0,0,0
1314270422.35038185,-0.00008637,0.00009017,842.96124268,0,0,0
1314270422.40052915,-0.00008628,0.00009017,842.86022949,0,0,0
1314270422.45350361,-0.00008636,0.00009016,842.75970459,0,0,0
1314270422.50048661,-0.00008628,0.00009016,842.65863037,0,0,0
1314270422.55250192,-0.00008635,0.00009016,842.55804443,0,0,0
1314270422.60165286,-0.00008627,0.00009016,842.45684814,0,0,0
1314270422.65347409,-0.00008634,0.00009015,842.35626221,0,0,0
1314270422.70051050,-0.00008626,0.00009015,842.25500488,0,0,0
1314270422.75020742,-0.00008633,0.00009015,842.15435791,0,0,0
1314270422.80097032,-0.00008625,0.00009014,842.05297852,0,0,0
1314270422.85360074,-0.00008633,0.00009014,841.95227051,0,0,0
1314270422.90448070,-0.00008624,0.00009014,841.85089111,0,0,0
1314270422.95348048,-0.00008632,0.00009013,841.75006104,0,0,0
1314270423.00153089,-0.00008623,0.00009013,841.64862061,0,0,0
1314270423.05348539,-0.00008631,0.00009013,841.54766846,0,0,0
1314270423.10161924,-0.00008622,0.00009013,841.44616699,0,0,0
1314270423.15006828,-0.00008630,0.00009012,841.34515381,0,0,0
1314270423.20160079,-0.00008622,0.00009012,841.24359131,0,0,0
1314270423.25360227,-0.00008629,0.00009011,841.14257812,0,0,0
1314270423.30046177,-0.00008621,0.00009011,841.04089355,0,0,0
1314270423.35246515,-0.00008628,0.00009011,840.93981934,0,0,0
1314270423.40151143,-0.00008620,0.00009011,840.83807373,0,0,0
1314270423.45246243,-0.00008628,0.00009010,840.73693848,0,0,0
1314270423.50062156,-0.00008619,0.00009010,840.63519287,0,0,0
1314270423.54994774,-0.00008627,0.00009010,840.53399658,0,0,0
1314270423.60049462,-0.00008618,0.00009010,840.43212891,0,0,0
1314270423.65350556,-0.00008626,0.00009009,840.33087158,0,0,0
1314270423.70322895,-0.00008617,0.00009009,840.22894287,0,0,0
1314270423.75359511,-0.00008625,0.00009008,840.12762451,0,0,0
1314270423.80551291,-0.00008616,0.00009009,840.02563477,0,0,0
1314270423.85346270,-0.00008624,0.00009008,839.92425537,0,0,0
1314270423.90091157,-0.00008615,0.00009008,839.82226562,0,0,0
1314270423.95378137,-0.00008623,0.00009007,839.72082520,0,0,0
1314270424.00047708,-0.00008614,0.00009007,839.61871338,0,0,0
1314270424.05347896,-0.00008622,0.00009007,839.51715088,0,0,0
1314270424.10052156,-0.00008614,0.00009007,839.41497803,0,0,0
1314270424.15246892,-0.00008621,0.00009006,839.31335449,0,0,0
1314270424.20137239,-0.00008613,0.00009006,839.21112061,0,0,0
1314270424.25347447,-0.00008620,0.00009005,839.10943604,0,0,0
1314270424.30078387,-0.00008612,0.00009006,839.00714111,0,0,0
1314270424.34965229,-0.00008619,0.00009005,838.90539551,0,0,0
1314270424.39246440,-0.00008611,0.00009005,838.80297852,0,0,0
1314270424.45253181,-0.00008610,0.00009005,838.72131348,0,0,0
1314270424.50052691,-0.00008610,0.00009004,838.59875488,0,0,0
1314270424.55246401,-0.00008618,0.00009004,838.49688721,0,0,0
1314270424.60055661,-0.00008609,0.00009004,838.39434814,0,0,0
1314270424.64448094,-0.00008617,0.00009003,838.29241943,0,0,0
1314270424.70081234,-0.00008616,0.00009003,838.21057129,0,0,0
1314270424.75245476,-0.00008616,0.00009002,838.08776855,0,0,0
1314270424.80047536,-0.00008607,0.00009003,837.98510742,0,0,0
1314270424.85247684,-0.00008615,0.00009002,837.88299561,0,0,0
1314270424.90044880,-0.00008606,0.00009002,837.78027344,0,0,0
1314270424.95349336,-0.00008614,0.00009001,837.67816162,0,0,0
1314270425.00192761,-0.00008605,0.00009001,837.57537842,0,0,0
1314270425.05247784,-0.00008613,0.00009000,837.47320557,0,0,0
1314270425.10052681,-0.00008605,0.00009001,837.37036133,0,0,0
1314270425.15014076,-0.00008612,0.00009000,837.26812744,0,0,0
1314270425.20048475,-0.00008604,0.00009000,837.16522217,0,0,0
1314270425.25354695,-0.00008611,0.00008999,837.06292725,0,0,0
1314270425.30046940,-0.00008603,0.00009000,836.95996094,0,0,0
1314270425.35350680,-0.00008611,0.00008999,836.85754395,0,0,0
1314270425.40147781,-0.00008602,0.00008999,836.75451660,0,0,0
1314270425.45251918,-0.00008610,0.00008998,836.65203857,0,0,0
1314270425.50112152,-0.00008601,0.00008998,836.54895020,0,0,0
1314270425.55424643,-0.00008609,0.00008997,836.44641113,0,0,0
1314270425.60157847,-0.00008600,0.00008998,836.34320068,0,0,0
1314270425.65249062,-0.00008608,0.00008997,836.24066162,0,0,0
1314270425.70069289,-0.00008599,0.00008997,836.13739014,0,0,0
1314270425.75353456,-0.00008607,0.00008996,836.03472900,0,0,0
1314270425.80152607,-0.00008598,0.00008997,835.93145752,0,0,0
1314270425.85347891,-0.00008606,0.00008996,835.82873535,0,0,0
1314270425.90047526,-0.00008597,0.00008996,835.72534180,0,0,0
1314270425.95023298,-0.00008605,0.00008995,835.62255859,0,0,0
1314270426.00060177,-0.00008596,0.00008996,835.51916504,0,0,0
1314270426.05248833,-0.00008604,0.00008994,835.41632080,0,0,0
1314270426.10044098,-0.00008595,0.00008995,835.31286621,0,0,0
1314270426.15352988,-0.00008603,0.00008994,835.21002197,0,0,0
1314270426.20214295,-0.00008594,0.00008994,835.10650635,0,0,0
1314270426.25349236,-0.00008602,0.00008993,835.00360107,0,0,0
1314270426.30048084,-0.00008593,0.00008994,834.90008545,0,0,0
1314270426.35019469,-0.00008601,0.00008993,834.79711914,0,0,0
1314270426.40046668,-0.00008592,0.00008993,834.69348145,0,0,0
1314270426.45246816,-0.00008600,0.00008992,834.59045410,0,0,0
1314270426.50051117,-0.00008591,0.00008993,834.48675537,0,0,0
1314270426.55360413,-0.00008599,0.00008991,834.38366699,0,0,0
1314270426.60159802,-0.00008590,0.00008992,834.27996826,0,0,0
1314270426.65245390,-0.00008598,0.00008991,834.17675781,0,0,0
1314270426.70052958,-0.00008589,0.00008991,834.07293701,0,0,0
1314270426.74985528,-0.00008597,0.00008990,833.96972656,0,0,0
1314270426.80152464,-0.00008588,0.00008991,833.86578369,0,0,0
1314270426.85249472,-0.00008596,0.00008990,833.76251221,0,0,0
1314270426.90216994,-0.00008587,0.00008990,833.65856934,0,0,0
1314270426.95250893,-0.00008595,0.00008989,833.55517578,0,0,0
1314270427.00147176,-0.00008586,0.00008990,833.45117188,0,0,0
1314270427.05348039,-0.00008595,0.00008988,833.34771729,0,0,0
1314270427.10064769,-0.00008585,0.00008989,833.24359131,0,0,0
1314270427.14969468,-0.00008594,0.00008988,833.14013672,0,0,0
1314270427.20048952,-0.00008584,0.00008988,833.03594971,0,0,0
1314270427.25247478,-0.00008593,0.00008987,832.93237305,0,0,0
1314270427.30033493,-0.00008583,0.00008988,832.82812500,0,0,0
1314270427.35248518,-0.00008592,0.00008986,832.72454834,0,0,0
1314270427.40148544,-0.00008582,0.00008987,832.62023926,0,0,0
1314270427.45244312,-0.00008591,0.00008986,832.51654053,0,0,0
1314270427.50148749,-0.00008582,0.00008987,832.41217041,0,0,0
1314270427.54955935,-0.00008590,0.00008985,832.30847168,0,0,0
1314270427.60045862,-0.00008581,0.00008986,832.20404053,0,0,0
1314270427.65360165,-0.00008589,0.00008985,832.10021973,0,0,0
1314270427.70047808,-0.00008580,0.00008985,831.99572754,0,0,0
1314270427.75251055,-0.00008588,0.00008984,831.89184570,0,0,0
1314270427.80151463,-0.00008578,0.00008985,831.78729248,0,0,0
1314270427.85346675,-0.00008587,0.00008983,831.68334961,0,0,0
1314270427.90088129,-0.00008577,0.00008984,831.57879639,0,0,0
1314270427.95027113,-0.00008586,0.00008983,831.47479248,0,0,0
1314270428.00054359,-0.00008577,0.00008984,831.37011719,0,0,0
1314270428.04954672,-0.00008585,0.00008982,831.26605225,0,0,0
1314270428.10058928,-0.00008576,0.00008983,831.16131592,0,0,0
1314270428.15045762,-0.00008584,0.00008982,831.05718994,0,0,0
1314270428.20148873,-0.00008575,0.00008982,830.95245361,0,0,0
1314270428.25244284,-0.00008583,0.00008981,830.84826660,0,0,0
1314270428.30060625,-0.00008573,0.00008982,830.74340820,0,0,0
1314270428.35028267,-0.00008582,0.00008980,830.63922119,0,0,0
1314270428.40047288,-0.00008572,0.00008981,830.53430176,0,0,0
1314270428.45358968,-0.00008581,0.00008980,830.42999268,0,0,0
1314270428.50315547,-0.00008572,0.00008981,830.32495117,0,0,0
1314270428.55351686,-0.00008580,0.00008979,830.22058105,0,0,0
1314270428.60550880,-0.00008571,0.00008980,830.11553955,0,0,0
1314270428.65349627,-0.00008579,0.00008978,830.01104736,0,0,0
1314270428.70059538,-0.00008570,0.00008979,829.90594482,0,0,0
1314270428.75412989,-0.00008578,0.00008978,829.80145264,0,0,0
1314270428.80049300,-0.00008568,0.00008979,829.69628906,0,0,0
1314270428.85244274,-0.00008577,0.00008977,829.59173584,0,0,0
1314270428.90046263,-0.00008567,0.00008978,829.48651123,0,0,0
1314270428.95246363,-0.00008576,0.00008976,829.38189697,0,0,0
1314270429.00156426,-0.00008566,0.00008977,829.27661133,0,0,0
1314270429.05347157,-0.00008575,0.00008976,829.17199707,0,0,0
1314270429.10047793,-0.00008565,0.00008977,829.06665039,0,0,0
1314270429.15010405,-0.00008574,0.00008975,828.96191406,0,0,0
1314270429.20072699,-0.00008564,0.00008976,828.85650635,0,0,0
1314270429.25246525,-0.00008573,0.00008974,828.75170898,0,0,0
1314270429.30453777,-0.00008563,0.00008976,828.64630127,0,0,0
1314270429.35246229,-0.00008572,0.00008974,828.54144287,0,0,0
1314270429.40048146,-0.00008562,0.00008975,828.43591309,0,0,0
1314270429.45245218,-0.00008571,0.00008973,828.33105469,0,0,0
1314270429.50044489,-0.00008561,0.00008974,828.22546387,0,0,0
1314270429.54999137,-0.00008570,0.00008973,828.12048340,0,0,0
1314270429.60159731,-0.00008560,0.00008974,828.01483154,0,0,0
1314270429.65257525,-0.00008569,0.00008972,827.90979004,0,0,0
1314270429.70445824,-0.00008559,0.00008973,827.80407715,0,0,0
1314270429.75257659,-0.00008568,0.00008971,827.69897461,0,0,0
1314270429.80152011,-0.00008558,0.00008972,827.59313965,0,0,0
1314270429.85352302,-0.00008567,0.00008971,827.48797607,0,0,0
1314270429.90159726,-0.00008557,0.00008972,827.38214111,0,0,0
1314270429.94970965,-0.00008566,0.00008970,827.27697754,0,0,0
1314270430.00057650,-0.00008556,0.00008971,827.17108154,0,0,0
1314270430.05248117,-0.00008565,0.00008969,827.06585693,0,0,0
1314270430.10186887,-0.00008555,0.00008970,826.95989990,0,0,0
1314270430.15360332,-0.00008564,0.00008969,826.85461426,0,0,0
1314270430.20163512,-0.00008554,0.00008970,826.74853516,0,0,0
1314270430.25243664,-0.00008563,0.00008968,826.64312744,0,0,0
1314270430.30058146,-0.00008553,0.00008969,826.53704834,0,0,0
1314270430.34969997,-0.00008562,0.00008967,826.43157959,0,0,0
1314270430.40047145,-0.00008552,0.00008968,826.32543945,0,0,0
1314270430.44958949,-0.00008561,0.00008966,826.21990967,0,0,0
1314270430.50159788,-0.00008551,0.00008968,826.11364746,0,0,0
1314270430.54960322,-0.00008560,0.00008966,826.00805664,0,0,0
1314270430.60050035,-0.00008550,0.00008967,825.90173340,0,0,0
1314270430.65347219,-0.00008559,0.00008965,825.79602051,0,0,0
1314270430.70060110,-0.00008549,0.00008966,825.68969727,0,0,0
1314270430.74957681,-0.00008558,0.00008964,825.58398438,0,0,0
1314270430.80060863,-0.00008548,0.00008966,825.47753906,0,0,0
1314270430.84958839,-0.00008557,0.00008964,825.37176514,0,0,0
1314270430.90044641,-0.00008547,0.00008965,825.26525879,0,0,0
1314270430.95351195,-0.00008556,0.00008963,825.15942383,0,0,0
1314270431.00546265,-0.00008546,0.00008964,825.05279541,0,0,0
1314270431.05347085,-0.00008555,0.00008962,824.94689941,0,0,0
1314270431.10156965,-0.00008545,0.00008964,824.84027100,0,0,0
1314270431.14944625,-0.00008554,0.00008962,824.73425293,0,0,0
1314270431.20046878,-0.00008544,0.00008963,824.62756348,0,0,0
1314270431.25350142,-0.00008553,0.00008961,824.52148438,0,0,0
1314270431.29253650,-0.00008543,0.00008962,824.41473389,0,0,0
1314270431.35359955,-0.00008543,0.00008962,824.32958984,0,0,0
1314270431.40149522,-0.00008542,0.00008962,824.20190430,0,0,0
1314270431.44047642,-0.00008551,0.00008960,824.09570312,0,0,0
1314270431.50050259,-0.00008551,0.00008959,824.01049805,0,0,0
1314270431.55028367,-0.00008550,0.00008959,823.88262939,0,0,0
1314270431.60159111,-0.00008540,0.00008960,823.77569580,0,0,0
1314270431.65418243,-0.00008549,0.00008958,823.66943359,0,0,0
1314270431.70026112,-0.00008539,0.00008959,823.56243896,0,0,0
1314270431.75418353,-0.00008548,0.00008958,823.45611572,0,0,0
1314270431.80213690,-0.00008538,0.00008959,823.34906006,0,0,0
1314270431.85348988,-0.00008547,0.00008957,823.24267578,0,0,0
1314270431.90116644,-0.00008537,0.00008958,823.13555908,0,0,0
1314270431.95016551,-0.00008547,0.00008956,823.02911377,0,0,0
1314270432.00050139,-0.00008536,0.00008957,822.92193604,0,0,0
1314270432.05348206,-0.00008546,0.00008955,822.81542969,0,0,0
1314270432.10047364,-0.00008535,0.00008957,822.70819092,0,0,0
1314270432.15349102,-0.00008545,0.00008955,822.60162354,0,0,0
1314270432.20056033,-0.00008534,0.00008956,822.49432373,0,0,0
1314270432.25360274,-0.00008544,0.00008954,822.38769531,0,0,0
1314270432.30057335,-0.00008533,0.00008955,822.28033447,0,0,0
1314270432.35401154,-0.00008543,0.00008953,822.17364502,0,0,0
1314270432.40047717,-0.00008533,0.00008955,822.06628418,0,0,0
1314270432.45360208,-0.00008542,0.00008953,821.95959473,0,0,0
1314270432.50164962,-0.00008532,0.00008954,821.85223389,0,0,0
1314270432.55360174,-0.00008541,0.00008952,821.74548340,0,0,0
1314270432.60149336,-0.00008531,0.00008953,821.63800049,0,0,0
1314270432.65348840,-0.00008540,0.00008951,821.53125000,0,0,0
1314270432.70150566,-0.00008530,0.00008952,821.42364502,0,0,0
1314270432.74986506,-0.00008539,0.00008950,821.31677246,0,0,0
1314270432.80052686,-0.00008529,0.00008952,821.20916748,0,0,0
1314270432.85352445,-0.00008538,0.00008950,821.10223389,0,0,0
1314270432.90047669,-0.00008528,0.00008951,820.99450684,0,0,0
1314270432.95351148,-0.00008537,0.00008949,820.88751221,0,0,0
1314270433.00147080,-0.00008527,0.00008950,820.77978516,0,0,0
1314270433.04444003,-0.00008536,0.00008948,820.67272949,0,0,0
1314270433.10103011,-0.00008536,0.00008948,820.58673096,0,0,0
1314270433.14972472,-0.00008535,0.00008948,820.45776367,0,0,0
1314270433.20130873,-0.00008525,0.00008949,820.34985352,0,0,0
1314270433.25257826,-0.00008534,0.00008947,820.24261475,0,0,0
1314270433.30330610,-0.00008524,0.00008948,820.13470459,0,0,0
1314270433.35262418,-0.00008533,0.00008946,820.02740479,0,0,0
1314270433.40180254,-0.00008523,0.00008947,819.91931152,0,0,0
1314270433.45247245,-0.00008532,0.00008945,819.81201172,0,0,0
1314270433.50071716,-0.00008522,0.00008947,819.70391846,0,0,0
1314270433.54960942,-0.00008531,0.00008945,819.59649658,0,0,0
1314270433.60101080,-0.00008521,0.00008946,819.48834229,0,0,0
1314270433.64960670,-0.00008530,0.00008944,819.38085938,0,0,0
1314270433.70078421,-0.00008520,0.00008945,819.27264404,0,0,0
1314270433.75246882,-0.00008530,0.00008943,819.16510010,0,0,0
1314270433.80233884,-0.00008519,0.00008944,819.05688477,0,0,0
1314270433.85347557,-0.00008529,0.00008942,818.94927979,0,0,0
1314270433.90146995,-0.00008518,0.00008943,818.84100342,0,0,0
1314270433.94945645,-0.00008528,0.00008942,818.73339844,0,0,0
1314270434.00112772,-0.00008517,0.00008943,818.62500000,0,0,0
1314270434.05347896,-0.00008527,0.00008941,818.51733398,0,0,0
1314270434.10448623,-0.00008516,0.00008942,818.40887451,0,0,0
1314270434.15245867,-0.00008526,0.00008940,818.30114746,0,0,0
1314270434.20048213,-0.00008515,0.00008941,818.19262695,0,0,0
1314270434.25243616,-0.00008525,0.00008939,818.08489990,0,0,0
1314270434.30044866,-0.00008515,0.00008940,817.97631836,0,0,0
1314270434.35246086,-0.00008524,0.00008939,817.86846924,0,0,0
1314270434.40046263,-0.00008514,0.00008940,817.75982666,0,0,0
1314270434.45351791,-0.00008523,0.00008938,817.65191650,0,0,0
1314270434.50445962,-0.00008513,0.00008939,817.54327393,0,0,0
1314270434.55359745,-0.00008522,0.00008937,817.43530273,0,0,0
1314270434.60165477,-0.00008512,0.00008938,817.32659912,0,0,0
1314270434.65247536,-0.00008521,0.00008936,817.21856689,0,0,0
1314270434.70120788,-0.00008511,0.00008937,817.10980225,0,0,0
1314270434.75017810,-0.00008520,0.00008936,817.00170898,0,0,0
1314270434.80045009,-0.00008510,0.00008937,816.89288330,0,0,0
1314270434.85359502,-0.00008519,0.00008935,816.78479004,0,0,0
1314270434.90051484,-0.00008509,0.00008936,816.67590332,0,0,0
1314270434.95312977,-0.00008518,0.00008934,816.56774902,0,0,0
1314270435.00149584,-0.00008508,0.00008935,816.45880127,0,0,0
1314270435.05243516,-0.00008517,0.00008933,816.35058594,0,0,0
1314270435.10159683,-0.00008507,0.00008934,816.24157715,0,0,0
1314270435.15260696,-0.00008516,0.00008933,816.13330078,0,0,0
1314270435.20151114,-0.00008506,0.00008934,816.02423096,0,0,0
1314270435.25292993,-0.00008515,0.00008932,815.91589355,0,0,0
1314270435.30150175,-0.00008505,0.00008933,815.80676270,0,0,0
1314270435.35314178,-0.00008514,0.00008931,815.69836426,0,0,0
1314270435.40149474,-0.00008504,0.00008932,815.58923340,0,0,0
1314270435.45247579,-0.00008513,0.00008930,815.48077393,0,0,0
1314270435.50047970,-0.00008503,0.00008931,815.37152100,0,0,0
1314270435.54991317,-0.00008513,0.00008930,815.26306152,0,0,0
1314270435.60059142,-0.00008502,0.00008931,815.15374756,0,0,0
1314270435.65354371,-0.00008512,0.00008929,815.04522705,0,0,0
1314270435.70164609,-0.00008501,0.00008930,814.93591309,0,0,0
1314270435.75352120,-0.00008511,0.00008928,814.82727051,0,0,0
1314270435.80149198,-0.00008500,0.00008929,814.71783447,0,0,0
1314270435.85350966,-0.00008509,0.00008927,814.60919189,0,0,0
1314270435.90059614,-0.00008499,0.00008928,814.49975586,0,0,0
1314270435.94976139,-0.00008509,0.00008926,814.39099121,0,0,0
1314270436.00046992,-0.00008498,0.00008928,814.28143311,0,0,0
1314270436.05248165,-0.00008508,0.00008926,814.17266846,0,0,0
1314270436.10046482,-0.00008497,0.00008927,814.06304932,0,0,0
1314270436.15247965,-0.00008507,0.00008925,813.95422363,0,0,0
1314270436.20148396,-0.00008496,0.00008926,813.84454346,0,0,0
1314270436.25279117,-0.00008505,0.00008924,813.73565674,0,0,0
1314270436.30049491,-0.00008495,0.00008925,813.62597656,0,0,0
1314270436.35245323,-0.00008504,0.00008923,813.51696777,0,0,0
1314270436.40051675,-0.00008494,0.00008925,813.40722656,0,0,0
1314270436.45249391,-0.00008503,0.00008923,813.29815674,0,0,0
1314270436.50168514,-0.00008493,0.00008924,813.18829346,0,0,0
1314270436.55347729,-0.00008502,0.00008922,813.07916260,0,0,0
1314270436.60159397,-0.00008492,0.00008923,812.96923828,0,0,0
1314270436.65243602,-0.00008501,0.00008921,812.86004639,0,0,0
1314270436.70047569,-0.00008491,0.00008922,812.75006104,0,0,0
1314270436.74948049,-0.00008500,0.00008920,812.64080811,0,0,0
1314270436.80126500,-0.00008490,0.00008922,812.53076172,0,0,0
1314270436.84959626,-0.00008499,0.00008920,812.42144775,0,0,0
1314270436.90048957,-0.00008489,0.00008921,812.31127930,0,0,0
1314270436.95259571,-0.00008498,0.00008919,812.20190430,0,0,0
